Location: Ago
(8.4667°N, 4.4833°E)
Time: 23:26:54
(UTC+00:00)

Ariane H10+ - Pass Details

Date: 18 September 2020
Orbit: 397 x 35399 km, 7.2° (Epoch: 20 October)

Event Time Altitude Azimuth Distance (km) Brightness Sun altitude
Rises 18:27:21 0° 262° (W) 17,459 11.7 -12.5°
Reaches altitude 10° 18:54:31 10° 260° (W) 9,297 9.7 -19.2°
Maximum altitude 19:14:39 66° 181° (S) 1,219 3.9 -24.1°
Enters shadow 19:15:51 51° 125° (SE) 1,169 3.5 -24.4°
